| time (UTC) | temp C | wind direction | speed KPH | gust KPH | rain 1hr cm | rain 24hr cm | rain mn cm | humidity % | barometer mb |
| 20260504184713 | 20 | 84 | 0.0 | 3.2 | 0.08 | 0.08 | 0.00 | 42 | 1010.7 |
| 20260504184410 | 20 | 85 | 0.0 | 3.2 | 0.08 | 0.08 | 0.00 | 42 | 1010.9 |
| 20260504184107 | 20 | 85 | 0.0 | 4.8 | 0.08 | 0.08 | 0.00 | 42 | 1010.9 |
| 20260504183803 | 21 | 82 | 0.0 | 3.2 | 0.08 | 0.08 | 0.00 | 42 | 1010.9 |
| 20260504183500 | 21 | 81 | 0.0 | 1.6 | 0.08 | 0.08 | 0.00 | 41 | 1010.7 |
| 20260504183157 | 21 | 79 | 0.0 | 0.0 | 0.08 | 0.08 | 0.00 | 42 | 1010.9 |
| 20260504182853 | 21 | 79 | 0.0 | 1.6 | 0.08 | 0.08 | 0.00 | 41 | 1010.7 |
| 20260504182550 | 21 | 78 | 0.0 | 1.6 | 0.08 | 0.08 | 0.00 | 41 | 1010.6 |
| 20260504182247 | 21 | 76 | 0.0 | 0.0 | 0.08 | 0.08 | 0.00 | 40 | 1010.6 |
| 20260504181943 | 21 | 75 | 0.0 | 1.6 | 0.08 | 0.08 | 0.00 | 40 | 1010.6 |
| 20260504181640 | 21 | 71 | 1.6 | 1.6 | 0.08 | 0.08 | 0.00 | 40 | 1010.6 |
| 20260504181337 | 21 | 63 | 1.6 | 3.2 | 0.08 | 0.08 | 0.00 | 40 | 1010.6 |
| 20260504181033 | 21 | 33 | 0.0 | 1.6 | 0.08 | 0.08 | 0.00 | 39 | 1010.6 |
| 20260504180730 | 22 | 338 | 0.0 | 1.6 | 0.08 | 0.08 | 0.00 | 39 | 1010.6 |
| 20260504180427 | 22 | 308 | 0.0 | 1.6 | 0.08 | 0.08 | 0.00 | 39 | 1010.7 |
| 20260504180123 | 22 | 279 | 0.0 | 1.6 | 0.08 | 0.08 | 0.00 | 39 | 1010.4 |
| 20260504175820 | 22 | 265 | 0.0 | 3.2 | 0.08 | 0.08 | 0.00 | 38 | 1010.6 |
| 20260504175516 | 22 | 263 | 0.0 | 3.2 | 0.08 | 0.08 | 0.00 | 37 | 1010.7 |
| 20260504175213 | 22 | 265 | 0.0 | 3.2 | 0.08 | 0.08 | 0.00 | 37 | 1010.7 |
| 20260504174910 | 22 | 262 | 0.0 | 3.2 | 0.08 | 0.08 | 0.00 | 37 | 1010.8 |
| 20260504174606 | 23 | 258 | 1.6 | 3.2 | 0.08 | 0.08 | 0.00 | 37 | 1010.5 |
| 20260504174303 | 23 | 256 | 1.6 | 6.4 | 0.08 | 0.08 | 0.00 | 36 | 1010.5 |
| 20260504174000 | 23 | 258 | 0.0 | 9.7 | 0.08 | 0.08 | 0.00 | 36 | 1010.4 |
| 20260504173656 | 23 | 257 | 0.0 | 9.7 | 0.08 | 0.08 | 0.00 | 36 | 1010.4 |
| 20260504173353 | 23 | 259 | 0.0 | 4.8 | 0.08 | 0.08 | 0.00 | 35 | 1010.3 |
| 20260504173050 | 23 | 259 | 1.6 | 6.4 | 0.08 | 0.08 | 0.00 | 35 | 1010.6 |
| 20260504172746 | 23 | 259 | 3.2 | 4.8 | 0.08 | 0.08 | 0.00 | 35 | 1010.6 |
| 20260504172443 | 23 | 257 | 0.0 | 9.7 | 0.08 | 0.08 | 0.00 | 35 | 1010.4 |
| 20260504172140 | 23 | 257 | 0.0 | 9.7 | 0.08 | 0.08 | 0.00 | 35 | 1010.4 |
| 20260504171836 | 23 | 259 | 3.2 | 8.0 | 0.08 | 0.08 | 0.00 | 35 | 1010.4 |
| 20260504171533 | 23 | 259 | 0.0 | 8.0 | 0.08 | 0.08 | 0.00 | 35 | 1010.7 |
| 20260504171229 | 23 | 258 | 0.0 | 6.4 | 0.08 | 0.08 | 0.00 | 34 | 1010.5 |
| 20260504170926 | 23 | 259 | 3.2 | 8.0 | 0.08 | 0.08 | 0.00 | 34 | 1010.4 |
| 20260504170623 | 24 | 260 | 0.0 | 8.0 | 0.08 | 0.08 | 0.00 | 34 | 1010.4 |
| 20260504170319 | 24 | 262 | 3.2 | 6.4 | 0.08 | 0.08 | 0.00 | 35 | 1010.4 |
| 20260504160212 | 27 | 264 | 3.2 | 14.5 | 0.08 | 0.08 | 0.00 | 29 | 1010.5 |
| 20260504151015 | 27 | 265 | 0.0 | 8.0 | 0.08 | 0.08 | 0.00 | 31 | 1010.9 |
| 20260504150712 | 27 | 265 | 3.2 | 6.4 | 0.08 | 0.08 | 0.00 | 31 | 1010.9 |
| 20260504150408 | 27 | 265 | 4.8 | 6.4 | 0.08 | 0.08 | 0.00 | 32 | 1010.9 |
| 20260504150105 | 27 | 265 | 3.2 | 6.4 | 0.08 | 0.08 | 0.00 | 31 | 1011.1 |
| 20260504141212 | 27 | 265 | 0.0 | 9.7 | 0.08 | 0.08 | 0.00 | 33 | 1011.6 |
| 20260504140908 | 27 | 264 | 8.0 | 9.7 | 0.08 | 0.08 | 0.00 | 32 | 1011.8 |
| 20260504140605 | 27 | 263 | 3.2 | 12.9 | 0.08 | 0.08 | 0.00 | 31 | 1011.6 |
| 20260504140302 | 28 | 263 | 0.0 | 8.0 | 0.08 | 0.08 | 0.00 | 32 | 1011.7 |
| 20260504130801 | 27 | 265 | 1.6 | 8.0 | 0.08 | 0.08 | 0.00 | 32 | 1012.7 |
| 20260504130458 | 27 | 266 | 8.0 | 8.0 | 0.08 | 0.08 | 0.00 | 33 | 1012.5 |
| 20260504130155 | 27 | 266 | 0.0 | 8.0 | 0.08 | 0.08 | 0.00 | 34 | 1012.4 |
| 20260504110547 | 24 | 262 | 8.0 | 14.5 | 0.08 | 0.08 | 0.00 | 39 | 1010.8 |
| 20260504110244 | 25 | 264 | 1.6 | 4.8 | 0.08 | 0.08 | 0.00 | 39 | 1010.9 |
| 20260504100440 | 24 | 266 | 0.0 | 4.8 | 0.08 | 0.08 | 0.00 | 41 | 1011.6 |
| 20260504100137 | 23 | 264 | 0.0 | 4.8 | 0.08 | 0.08 | 0.00 | 40 | 1011.5 |
| 20260504081743 | 19 | 258 | 1.6 | 8.0 | 0.08 | 0.08 | 0.00 | 55 | 1012.2 |
| 20260504081440 | 19 | 261 | 4.8 | 6.4 | 0.08 | 0.08 | 0.00 | 54 | 1012.3 |
| 20260504081137 | 19 | 263 | 4.8 | 6.4 | 0.08 | 0.08 | 0.00 | 56 | 1012.2 |
| 20260504080833 | 18 | 266 | 1.6 | 4.8 | 0.08 | 0.08 | 0.00 | 57 | 1012.3 |
| 20260504080530 | 18 | 265 | 0.0 | 4.8 | 0.08 | 0.08 | 0.00 | 57 | 1012.4 |
| 20260504080226 | 19 | 267 | 3.2 | 3.2 | 0.08 | 0.08 | 0.00 | 56 | 1012.4 |
| 20260504070119 | 16 | 266 | 0.0 | 0.0 | 0.08 | 0.08 | 0.00 | 63 | 1012.4 |
| 20260504050512 | 8 | 266 | 0.0 | 1.6 | 0.08 | 0.08 | 0.00 | 86 | 1012.2 |
| 20260504050208 | 8 | 266 | 0.0 | 0.0 | 0.08 | 0.08 | 0.00 | 87 | 1012.3 |
| 20260504045905 | 7 | 266 | 0.0 | 3.2 | 0.08 | 0.08 | 0.00 | 87 | 1012.4 |
| 20260504045602 | 7 | 266 | 1.6 | 3.2 | 0.08 | 0.08 | 0.00 | 88 | 1012.4 |
| 20260504045258 | 7 | 266 | 0.0 | 3.2 | 0.08 | 0.08 | 0.00 | 88 | 1012.4 |
| 20260504044955 | 7 | 266 | 0.0 | 3.2 | 0.08 | 0.08 | 0.00 | 88 | 1012.1 |
| 20260504044652 | 7 | 266 | 1.6 | 3.2 | 0.08 | 0.08 | 0.00 | 89 | 1012.3 |
| 20260504044348 | 7 | 266 | 1.6 | 3.2 | 0.08 | 0.08 | 0.00 | 89 | 1012.2 |
| 20260504044045 | 7 | 266 | 0.0 | 1.6 | 0.08 | 0.08 | 0.00 | 90 | 1012.0 |
| 20260504043742 | 7 | 266 | 0.0 | 1.6 | 0.08 | 0.08 | 0.00 | 90 | 1012.2 |
| 20260504043438 | 6 | 266 | 0.0 | 1.6 | 0.08 | 0.08 | 0.00 | 90 | 1011.9 |
| 20260504043135 | 6 | 266 | 0.0 | 0.0 | 0.08 | 0.08 | 0.00 | 91 | 1012.1 |
| 20260504042832 | 6 | 266 | 0.0 | 0.0 | 0.08 | 0.08 | 0.00 | 91 | 1012.2 |
| 20260504042528 | 6 | 266 | 0.0 | 0.0 | 0.08 | 0.08 | 0.00 | 91 | 1012.0 |
| 20260504042225 | 6 | 266 | 0.0 | 0.0 | 0.08 | 0.08 | 0.00 | 92 | 1012.0 |
| 20260504041922 | 6 | 266 | 0.0 | 0.0 | 0.08 | 0.08 | 0.00 | 92 | 1012.0 |
| 20260504041618 | 6 | 266 | 0.0 | 0.0 | 0.08 | 0.08 | 0.00 | 92 | 1012.1 |
| 20260504041315 | 6 | 266 | 0.0 | 0.0 | 0.08 | 0.08 | 0.00 | 93 | 1012.1 |
| 20260504041012 | 6 | 266 | 0.0 | 0.0 | 0.08 | 0.08 | 0.00 | 93 | 1012.0 |
| 20260504040708 | 6 | 266 | 0.0 | 0.0 | 0.08 | 0.08 | 0.00 | 93 | 1011.9 |
| 20260504040405 | 5 | 266 | 0.0 | 0.0 | 0.08 | 0.08 | 0.00 | 93 | 1012.1 |
| 20260504035758 | 5 | 266 | 0.0 | 0.0 | 0.08 | 0.08 | 0.00 | 93 | 1012.1 |
| 20260504035455 | 5 | 266 | 0.0 | 0.0 | 0.08 | 0.08 | 0.00 | 93 | 1012.0 |
| 20260504035151 | 6 | 266 | 0.0 | 0.0 | 0.08 | 0.08 | 0.00 | 93 | 1012.1 |
| 20260504034848 | 6 | 266 | 0.0 | 0.0 | 0.08 | 0.08 | 0.00 | 93 | 1012.0 |
| 20260504034545 | 6 | 266 | 0.0 | 0.0 | 0.08 | 0.08 | 0.00 | 93 | 1012.1 |
| 20260504034241 | 5 | 266 | 0.0 | 0.0 | 0.08 | 0.08 | 0.00 | 93 | 1012.2 |
| 20260504033938 | 6 | 266 | 0.0 | 0.0 | 0.08 | 0.08 | 0.00 | 93 | 1012.0 |
| 20260504033635 | 6 | 266 | 0.0 | 0.0 | 0.08 | 0.08 | 0.00 | 93 | 1012.0 |
| 20260504033331 | 6 | 266 | 0.0 | 0.0 | 0.08 | 0.08 | 0.00 | 93 | 1012.2 |
| 20260504033028 | 6 | 266 | 0.0 | 0.0 | 0.08 | 0.08 | 0.00 | 93 | 1012.2 |
| 20260504032725 | 6 | 266 | 0.0 | 0.0 | 0.08 | 0.08 | 0.00 | 93 | 1012.1 |
| 20260504032422 | 6 | 266 | 0.0 | 0.0 | 0.08 | 0.08 | 0.00 | 93 | 1012.0 |
| 20260504032118 | 6 | 266 | 0.0 | 0.0 | 0.08 | 0.08 | 0.00 | 93 | 1012.1 |
| 20260504031815 | 6 | 266 | 0.0 | 0.0 | 0.08 | 0.08 | 0.00 | 93 | 1012.1 |
| 20260504031511 | 6 | 266 | 0.0 | 0.0 | 0.08 | 0.08 | 0.00 | 93 | 1012.2 |
| 20260504031208 | 6 | 266 | 0.0 | 0.0 | 0.08 | 0.08 | 0.00 | 92 | 1012.1 |
| 20260504030905 | 6 | 266 | 0.0 | 0.0 | 0.08 | 0.08 | 0.00 | 92 | 1012.1 |
| 20260504030601 | 5 | 266 | 0.0 | 1.6 | 0.08 | 0.08 | 0.00 | 92 | 1012.2 |
| 20260504030258 | 6 | 266 | 1.6 | 1.6 | 0.08 | 0.08 | 0.00 | 93 | 1012.1 |
| 20260504025955 | 6 | 266 | 0.0 | 0.0 | 0.08 | 0.08 | 0.00 | 92 | 1012.2 |
| 20260504025651 | 6 | 266 | 0.0 | 0.0 | 0.08 | 0.08 | 0.00 | 92 | 1012.1 |
| 20260504025348 | 6 | 266 | 0.0 | 0.0 | 0.08 | 0.08 | 0.00 | 92 | 1012.1 |
| 20260504025045 | 6 | 266 | 0.0 | 0.0 | 0.08 | 0.08 | 0.00 | 92 | 1012.0 |
| 20260504024741 | 6 | 266 | 0.0 | 0.0 | 0.08 | 0.08 | 0.00 | 92 | 1012.2 |
| 20260504024438 | 6 | 266 | 0.0 | 0.0 | 0.08 | 0.08 | 0.00 | 92 | 1012.1 |
| 20260504024135 | 6 | 266 | 0.0 | 0.0 | 0.08 | 0.08 | 0.00 | 91 | 1012.1 |
| 20260504023831 | 6 | 266 | 0.0 | 0.0 | 0.08 | 0.08 | 0.00 | 91 | 1012.2 |
| 20260504023528 | 6 | 266 | 0.0 | 0.0 | 0.08 | 0.08 | 0.00 | 91 | 1012.2 |
| 20260504023225 | 6 | 266 | 0.0 | 0.0 | 0.08 | 0.08 | 0.00 | 91 | 1011.9 |
| 20260504022921 | 6 | 266 | 0.0 | 0.0 | 0.08 | 0.08 | 0.00 | 91 | 1012.2 |
| 20260504022618 | 6 | 266 | 0.0 | 0.0 | 0.08 | 0.08 | 0.00 | 91 | 1012.0 |
| 20260504022314 | 6 | 266 | 0.0 | 0.0 | 0.08 | 0.08 | 0.00 | 91 | 1012.2 |
| 20260504022011 | 6 | 266 | 0.0 | 3.2 | 0.08 | 0.08 | 0.00 | 91 | 1012.0 |
| 20260504021708 | 6 | 266 | 1.6 | 3.2 | 0.08 | 0.08 | 0.00 | 92 | 1012.1 |
| 20260504021404 | 6 | 266 | 0.0 | 0.0 | 0.08 | 0.08 | 0.00 | 92 | 1012.1 |
| 20260504021101 | 6 | 266 | 0.0 | 0.0 | 0.08 | 0.08 | 0.00 | 92 | 1012.1 |
| 20260504020758 | 6 | 266 | 0.0 | 0.0 | 0.08 | 0.08 | 0.00 | 91 | 1012.1 |
| 20260504020454 | 6 | 266 | 0.0 | 0.0 | 0.08 | 0.08 | 0.00 | 92 | 1012.2 |
| 20260504020151 | 6 | 266 | 0.0 | 0.0 | 0.08 | 0.08 | 0.00 | 91 | 1012.0 |
| 20260504015848 | 6 | 266 | 0.0 | 0.0 | 0.08 | 0.08 | 0.00 | 91 | 1012.1 |
| 20260504015544 | 6 | 266 | 0.0 | 0.0 | 0.08 | 0.08 | 0.00 | 91 | 1012.0 |
| 20260504015241 | 6 | 266 | 0.0 | 0.0 | 0.08 | 0.08 | 0.00 | 91 | 1012.1 |
| 20260504014938 | 6 | 266 | 0.0 | 0.0 | 0.08 | 0.08 | 0.00 | 91 | 1012.2 |
| 20260504014634 | 6 | 266 | 0.0 | 0.0 | 0.08 | 0.08 | 0.00 | 91 | 1012.3 |
| 20260504014331 | 7 | 266 | 0.0 | 0.0 | 0.08 | 0.08 | 0.00 | 91 | 1012.3 |
| 20260504014027 | 7 | 266 | 0.0 | 0.0 | 0.08 | 0.08 | 0.00 | 90 | 1012.1 |
| 20260504013724 | 7 | 266 | 0.0 | 0.0 | 0.08 | 0.08 | 0.00 | 90 | 1012.1 |
| 20260504013421 | 7 | 266 | 0.0 | 0.0 | 0.08 | 0.08 | 0.00 | 90 | 1012.2 |
| 20260504013117 | 7 | 266 | 0.0 | 0.0 | 0.08 | 0.08 | 0.00 | 90 | 1011.9 |
| 20260504012814 | 7 | 266 | 0.0 | 0.0 | 0.08 | 0.08 | 0.00 | 89 | 1012.2 |
| 20260504012511 | 7 | 266 | 0.0 | 0.0 | 0.08 | 0.08 | 0.00 | 90 | 1012.1 |
| 20260504012207 | 7 | 266 | 0.0 | 0.0 | 0.08 | 0.08 | 0.00 | 90 | 1012.3 |
| 20260504011904 | 7 | 266 | 0.0 | 0.0 | 0.08 | 0.08 | 0.00 | 89 | 1012.2 |
| 20260504011601 | 7 | 266 | 0.0 | 0.0 | 0.08 | 0.08 | 0.00 | 89 | 1012.0 |
| 20260504011257 | 7 | 266 | 0.0 | 0.0 | 0.08 | 0.08 | 0.00 | 89 | 1012.2 |
| 20260504010954 | 7 | 266 | 0.0 | 0.0 | 0.08 | 0.08 | 0.00 | 89 | 1012.1 |
| 20260504010651 | 7 | 266 | 0.0 | 0.0 | 0.08 | 0.08 | 0.00 | 89 | 1012.1 |
| 20260504010347 | 7 | 266 | 0.0 | 0.0 | 0.08 | 0.08 | 0.00 | 89 | 1012.1 |
| 20260504010044 | 7 | 266 | 0.0 | 0.0 | 0.08 | 0.08 | 0.00 | 89 | 1012.4 |
| 20260504005741 | 7 | 266 | 0.0 | 0.0 | 0.08 | 0.08 | 0.00 | 88 | 1012.3 |
| 20260504005437 | 7 | 266 | 0.0 | 0.0 | 0.08 | 0.08 | 0.00 | 88 | 1012.2 |
| 20260504005134 | 7 | 264 | 0.0 | 0.0 | 0.08 | 0.08 | 0.00 | 88 | 1012.1 |
| 20260504004831 | 7 | 262 | 0.0 | 0.0 | 0.08 | 0.08 | 0.00 | 87 | 1011.9 |
| 20260504004527 | 7 | 260 | 0.0 | 0.0 | 0.08 | 0.08 | 0.00 | 88 | 1011.9 |
| 20260504004224 | 7 | 258 | 0.0 | 0.0 | 0.08 | 0.08 | 0.00 | 87 | 1011.9 |
| 20260504003920 | 7 | 255 | 0.0 | 0.0 | 0.08 | 0.08 | 0.00 | 87 | 1012.3 |
| 20260504003617 | 7 | 253 | 0.0 | 0.0 | 0.08 | 0.08 | 0.00 | 87 | 1012.3 |
| 20260504003314 | 8 | 251 | 0.0 | 0.0 | 0.08 | 0.08 | 0.00 | 86 | 1012.1 |
| 20260504003011 | 8 | 246 | 0.0 | 0.0 | 0.08 | 0.08 | 0.00 | 86 | 1012.1 |
| 20260504002707 | 8 | 238 | 0.0 | 0.0 | 0.08 | 0.08 | 0.00 | 87 | 1011.9 |
| 20260504002404 | 8 | 227 | 0.0 | 0.0 | 0.08 | 0.08 | 0.00 | 87 | 1012.1 |
| 20260504002101 | 8 | 217 | 0.0 | 0.0 | 0.08 | 0.08 | 0.00 | 86 | 1012.2 |
| 20260504001757 | 8 | 212 | 0.0 | 3.2 | 0.08 | 0.08 | 0.00 | 86 | 1012.0 |
| 20260504001454 | 8 | 203 | 0.0 | 3.2 | 0.08 | 0.08 | 0.00 | 86 | 1012.1 |
| 20260504001150 | 8 | 188 | 0.0 | 1.6 | 0.08 | 0.08 | 0.00 | 86 | 1012.1 |
| 20260504000847 | 8 | 170 | 0.0 | 0.0 | 0.08 | 0.08 | 0.00 | 86 | 1012.1 |
| 20260504000544 | 8 | 155 | 0.0 | 0.0 | 0.08 | 0.08 | 0.00 | 86 | 1012.2 |
| 20260504000241 | 7 | 145 | 0.0 | 0.0 | 0.08 | 0.08 | 0.00 | 85 | 1012.2 |
| 20260503235937 | 8 | 145 | 0.0 | 0.0 | 0.08 | 0.08 | 0.00 | 85 | 1012.2 |
| 20260503235634 | 8 | 143 | 0.0 | 0.0 | 0.08 | 0.08 | 0.00 | 87 | 1011.9 |
| 20260503235330 | 8 | 123 | 0.0 | 0.0 | 0.08 | 0.08 | 0.00 | 86 | 1012.0 |
| 20260503235027 | 8 | 117 | 0.0 | 0.0 | 0.08 | 0.08 | 0.00 | 86 | 1012.1 |
| 20260503234724 | 8 | 115 | 0.0 | 0.0 | 0.08 | 0.08 | 0.00 | 86 | 1011.8 |
| 20260503234420 | 8 | 112 | 0.0 | 0.0 | 0.08 | 0.08 | 0.00 | 86 | 1012.2 |
| 20260503234117 | 8 | 105 | 0.0 | 0.0 | 0.08 | 0.08 | 0.00 | 86 | 1012.2 |
| 20260503233814 | 8 | 99 | 0.0 | 0.0 | 0.08 | 0.08 | 0.00 | 86 | 1011.9 |
| 20260503233510 | 8 | 95 | 0.0 | 0.0 | 0.08 | 0.08 | 0.00 | 85 | 1011.8 |
| 20260503233207 | 8 | 92 | 0.0 | 0.0 | 0.08 | 0.08 | 0.00 | 85 | 1012.0 |
| 20260503232904 | 8 | 91 | 0.0 | 0.0 | 0.08 | 0.08 | 0.00 | 86 | 1012.0 |
| 20260503232600 | 8 | 88 | 0.0 | 0.0 | 0.08 | 0.08 | 0.00 | 85 | 1011.9 |
| 20260503232257 | 8 | 86 | 0.0 | 0.0 | 0.08 | 0.08 | 0.00 | 84 | 1012.0 |
| 20260503231954 | 8 | 86 | 0.0 | 0.0 | 0.08 | 0.08 | 0.00 | 84 | 1012.1 |
| 20260503231650 | 8 | 86 | 0.0 | 0.0 | 0.08 | 0.08 | 0.00 | 84 | 1011.9 |
| 20260503231347 | 9 | 86 | 0.0 | 0.0 | 0.08 | 0.08 | 0.00 | 83 | 1011.9 |
| 20260503231044 | 9 | 86 | 0.0 | 0.0 | 0.08 | 0.08 | 0.00 | 83 | 1012.1 |
| 20260503230740 | 9 | 86 | 0.0 | 0.0 | 0.08 | 0.08 | 0.00 | 82 | 1012.1 |
| 20260503230437 | 9 | 86 | 0.0 | 0.0 | 0.08 | 0.08 | 0.00 | 83 | 1011.9 |
| 20260503230134 | 9 | 86 | 0.0 | 0.0 | 0.08 | 0.08 | 0.00 | 84 | 1012.3 |
| 20260503225830 | 9 | 86 | 0.0 | 0.0 | 0.08 | 0.08 | 0.00 | 83 | 1012.2 |
| 20260503225527 | 10 | 86 | 0.0 | 0.0 | 0.08 | 0.08 | 0.00 | 82 | 1012.1 |
| 20260503225224 | 10 | 86 | 0.0 | 0.0 | 0.08 | 0.08 | 0.00 | 81 | 1012.0 |
| 20260503224920 | 10 | 86 | 0.0 | 0.0 | 0.08 | 0.08 | 0.00 | 81 | 1012.1 |
| 20260503224617 | 10 | 87 | 0.0 | 3.2 | 0.08 | 0.08 | 0.00 | 81 | 1011.9 |
| 20260503224313 | 10 | 89 | 0.0 | 4.8 | 0.08 | 0.08 | 0.00 | 81 | 1012.1 |
| 20260503224010 | 10 | 89 | 3.2 | 4.8 | 0.08 | 0.08 | 0.00 | 81 | 1012.1 |
| 20260503223707 | 10 | 87 | 3.2 | 4.8 | 0.08 | 0.08 | 0.00 | 81 | 1012.2 |
| 20260503223403 | 10 | 88 | 0.0 | 3.2 | 0.08 | 0.08 | 0.00 | 81 | 1012.3 |
| 20260503223100 | 10 | 88 | 0.0 | 4.8 | 0.08 | 0.08 | 0.00 | 80 | 1012.2 |
| 20260503222757 | 10 | 88 | 1.6 | 4.8 | 0.08 | 0.08 | 0.00 | 80 | 1012.2 |
| 20260503222453 | 10 | 88 | 3.2 | 4.8 | 0.08 | 0.08 | 0.00 | 80 | 1012.0 |
| 20260503222150 | 11 | 87 | 1.6 | 4.8 | 0.08 | 0.08 | 0.00 | 80 | 1012.2 |
| 20260503221847 | 11 | 86 | 1.6 | 4.8 | 0.08 | 0.08 | 0.00 | 80 | 1012.2 |
| 20260503221543 | 11 | 86 | 1.6 | 4.8 | 0.08 | 0.08 | 0.00 | 79 | 1012.2 |
| 20260503221240 | 11 | 86 | 1.6 | 4.8 | 0.08 | 0.08 | 0.00 | 79 | 1012.1 |
| 20260503220937 | 11 | 86 | 1.6 | 4.8 | 0.08 | 0.08 | 0.00 | 79 | 1012.3 |
| 20260503220633 | 11 | 86 | 3.2 | 4.8 | 0.08 | 0.08 | 0.00 | 79 | 1012.4 |
| 20260503220330 | 11 | 86 | 0.0 | 3.2 | 0.08 | 0.08 | 0.00 | 79 | 1012.1 |
| 20260503220027 | 11 | 86 | 1.6 | 3.2 | 0.08 | 0.08 | 0.00 | 79 | 1012.2 |
| 20260503215723 | 11 | 86 | 0.0 | 1.6 | 0.08 | 0.08 | 0.00 | 78 | 1012.1 |
| 20260503215420 | 11 | 86 | 0.0 | 1.6 | 0.08 | 0.08 | 0.00 | 78 | 1012.0 |
| 20260503215116 | 11 | 86 | 0.0 | 3.2 | 0.08 | 0.08 | 0.00 | 78 | 1012.3 |
| 20260503214813 | 11 | 86 | 0.0 | 4.8 | 0.08 | 0.08 | 0.00 | 77 | 1012.3 |
| 20260503214510 | 11 | 86 | 1.6 | 3.2 | 0.08 | 0.08 | 0.00 | 77 | 1012.1 |
| 20260503214206 | 11 | 86 | 1.6 | 3.2 | 0.08 | 0.08 | 0.00 | 76 | 1012.2 |
| 20260503213903 | 11 | 86 | 1.6 | 3.2 | 0.08 | 0.08 | 0.00 | 77 | 1012.2 |
| 20260503213600 | 11 | 86 | 1.6 | 3.2 | 0.08 | 0.08 | 0.00 | 76 | 1012.1 |
| 20260503213256 | 11 | 86 | 0.0 | 3.2 | 0.08 | 0.08 | 0.00 | 75 | 1012.1 |
| 20260503212953 | 12 | 86 | 0.0 | 4.8 | 0.08 | 0.08 | 0.00 | 75 | 1012.2 |
| 20260503212650 | 12 | 86 | 1.6 | 4.8 | 0.08 | 0.08 | 0.00 | 76 | 1012.0 |
| 20260503212347 | 12 | 86 | 0.0 | 4.8 | 0.08 | 0.08 | 0.00 | 76 | 1012.1 |
| 20260503212043 | 12 | 86 | 1.6 | 4.8 | 0.08 | 0.08 | 0.00 | 76 | 1012.1 |
| 20260503211740 | 12 | 86 | 0.0 | 3.2 | 0.08 | 0.08 | 0.00 | 75 | 1012.3 |
| 20260503211436 | 12 | 86 | 0.0 | 3.2 | 0.08 | 0.08 | 0.00 | 75 | 1012.2 |
| 20260503211133 | 12 | 86 | 0.0 | 1.6 | 0.08 | 0.08 | 0.00 | 75 | 1012.2 |
| 20260503210830 | 12 | 86 | 0.0 | 3.2 | 0.08 | 0.08 | 0.00 | 75 | 1012.3 |
| 20260503210526 | 12 | 86 | 1.6 | 3.2 | 0.08 | 0.08 | 0.00 | 74 | 1012.2 |
| 20260503210223 | 12 | 86 | 0.0 | 1.6 | 0.08 | 0.08 | 0.00 | 74 | 1012.0 |
| 20260503205920 | 12 | 86 | 0.0 | 1.6 | 0.08 | 0.08 | 0.00 | 74 | 1012.2 |
| 20260503205616 | 12 | 86 | 1.6 | 1.6 | 0.08 | 0.08 | 0.00 | 74 | 1012.1 |
| 20260503205313 | 12 | 86 | 0.0 | 3.2 | 0.08 | 0.08 | 0.00 | 73 | 1012.2 |
| 20260503205010 | 12 | 86 | 1.6 | 1.6 | 0.08 | 0.08 | 0.00 | 73 | 1012.4 |
| 20260503204706 | 12 | 86 | 0.0 | 0.0 | 0.08 | 0.08 | 0.00 | 73 | 1012.2 |
| 20260503204403 | 12 | 86 | 0.0 | 0.0 | 0.08 | 0.08 | 0.00 | 73 | 1012.3 |
| 20260503204100 | 12 | 86 | 0.0 | 0.0 | 0.08 | 0.08 | 0.00 | 73 | 1012.3 |
| 20260503203756 | 12 | 86 | 0.0 | 0.0 | 0.08 | 0.08 | 0.00 | 72 | 1012.2 |
| 20260503203453 | 12 | 86 | 0.0 | 0.0 | 0.08 | 0.08 | 0.00 | 72 | 1012.2 |
| 20260503203150 | 12 | 86 | 0.0 | 0.0 | 0.08 | 0.08 | 0.00 | 72 | 1012.1 |
| 20260503202846 | 12 | 86 | 0.0 | 0.0 | 0.08 | 0.08 | 0.00 | 72 | 1012.3 |
| 20260503202543 | 12 | 86 | 0.0 | 0.0 | 0.08 | 0.08 | 0.00 | 72 | 1012.1 |
| 20260503202240 | 12 | 86 | 0.0 | 0.0 | 0.08 | 0.08 | 0.00 | 70 | 1012.1 |
| 20260503201936 | 13 | 86 | 0.0 | 0.0 | 0.08 | 0.08 | 0.00 | 71 | 1012.4 |
| 20260503201633 | 13 | 86 | 0.0 | 0.0 | 0.08 | 0.08 | 0.00 | 70 | 1012.2 |
| 20260503201330 | 13 | 86 | 0.0 | 0.0 | 0.08 | 0.08 | 0.00 | 70 | 1012.3 |
| 20260503201026 | 13 | 86 | 0.0 | 0.0 | 0.08 | 0.08 | 0.00 | 70 | 1012.2 |
| 20260503200723 | 13 | 86 | 0.0 | 0.0 | 0.08 | 0.08 | 0.00 | 70 | 1012.5 |
| 20260503200420 | 12 | 86 | 0.0 | 0.0 | 0.08 | 0.08 | 0.00 | 70 | 1012.2 |
| 20260503200116 | 12 | 86 | 0.0 | 0.0 | 0.08 | 0.08 | 0.00 | 69 | 1012.2 |
| 20260503195813 | 13 | 86 | 0.0 | 0.0 | 0.08 | 0.08 | 0.00 | 70 | 1012.2 |
| 20260503195509 | 13 | 86 | 0.0 | 0.0 | 0.08 | 0.08 | 0.00 | 70 | 1012.1 |
| 20260503195206 | 13 | 86 | 0.0 | 0.0 | 0.08 | 0.08 | 0.00 | 70 | 1012.5 |
| 20260503194903 | 13 | 86 | 0.0 | 0.0 | 0.08 | 0.08 | 0.00 | 69 | 1012.2 |
| 20260503194559 | 13 | 86 | 0.0 | 0.0 | 0.08 | 0.08 | 0.00 | 70 | 1012.1 |
| 20260503194256 | 13 | 86 | 0.0 | 0.0 | 0.08 | 0.08 | 0.00 | 69 | 1012.1 |
| 20260503193953 | 13 | 86 | 0.0 | 0.0 | 0.08 | 0.08 | 0.00 | 69 | 1012.1 |
| 20260503193649 | 13 | 86 | 0.0 | 0.0 | 0.08 | 0.08 | 0.00 | 70 | 1012.0 |
| 20260503193346 | 14 | 86 | 0.0 | 0.0 | 0.08 | 0.08 | 0.00 | 70 | 1012.1 |
| 20260503193042 | 13 | 86 | 0.0 | 0.0 | 0.08 | 0.08 | 0.00 | 67 | 1012.0 |
| 20260503192739 | 14 | 86 | 0.0 | 0.0 | 0.08 | 0.08 | 0.00 | 67 | 1012.0 |
| 20260503192436 | 14 | 86 | 0.0 | 0.0 | 0.08 | 0.08 | 0.00 | 67 | 1011.8 |
| 20260503192132 | 15 | 86 | 0.0 | 0.0 | 0.08 | 0.08 | 0.00 | 66 | 1011.8 |
| 20260503191829 | 15 | 86 | 0.0 | 0.0 | 0.08 | 0.08 | 0.00 | 66 | 1012.0 |
| 20260503191526 | 15 | 85 | 0.0 | 0.0 | 0.08 | 0.08 | 0.00 | 64 | 1012.0 |
| 20260503191222 | 15 | 83 | 0.0 | 0.0 | 0.08 | 0.08 | 0.00 | 65 | 1011.9 |
| 20260503190919 | 15 | 83 | 0.0 | 0.0 | 0.08 | 0.08 | 0.00 | 63 | 1012.2 |
| 20260503190616 | 15 | 82 | 0.0 | 0.0 | 0.08 | 0.08 | 0.00 | 62 | 1011.8 |
| 20260503190312 | 15 | 81 | 0.0 | 0.0 | 0.08 | 0.08 | 0.00 | 62 | 1011.8 |
| 20260503190009 | 15 | 81 | 0.0 | 0.0 | 0.08 | 0.08 | 0.00 | 63 | 1011.8 |
| 20260503185706 | 15 | 80 | 0.0 | 0.0 | 0.08 | 0.08 | 0.00 | 62 | 1011.7 |
| 20260503185402 | 16 | 80 | 0.0 | 0.0 | 0.08 | 0.08 | 0.00 | 62 | 1011.7 |
| 20260503185059 | 16 | 79 | 0.0 | 0.0 | 0.08 | 0.08 | 0.00 | 61 | 1011.8 |
| 20260503184756 | 16 | 78 | 0.0 | 0.0 | 0.08 | 0.08 | 0.00 | 61 | 1011.7 |